www.pogodaiklimat.ru

Погода и климат >> Архив погоды >> Таиланд >> Ко Ланта


ПОГОДА на Ко Ланта

  • Прогноз погоды на Ко Ланта
  • Монитор погоды на Ко Ланта

АРХИВ ПОГОДЫ на Ко Ланта

Время (UTC), дата Ветер
(напр.,м/с)
 
Видим.   Явления Облачность Т
(С)
Тd
(С)
f
(%)
Тe
(С)
Тes
(С)
Комфортность P
(гПа)
Po
(гПа)
Тmin
(С)
Tmax
(С)
R
(мм)
R24
(мм)
S
(см)
00 16.04 штиль 0 10 км 9/3 600 м
[Cu Sc Ac lent Cs]
+27.1 +25.7 92 +40 +40 очень
душно
1009.1 1008.3 +25.5
03 16.04 штиль 0 10 км 9/3 600 м
[Cu Sc Ac lent Cs]
+31.4 +28.1 83 +52 +60 опасность
перегрева
1011.4 1010.6
06 16.04 ЮЗ 8 10 км 8/3 600 м
[Cu hum Ac lent Cs]
+32.2 +27.2 75 +51 +52 опасность
перегрева
1010.3 1009.5
09 16.04 ЮЗ 5 10 км 8/3 600 м
[Cu hum Ac lent Cs]
+31.2 +26.6 77 +48 +50 опасность
перегрева
1007.5 1006.7
12 16.04 З 5 10 км 10/3 600 м
[Cu Sc Ac lent Cs]
+30.1 +25.7 77 +44 +44 опасность
перегрева
1009.0 1008.2 +32.9
15 16.04 В 5 10 км 10/3 600 м
[Cu Sc Ac lent Cs]
+28.2 +25.9 87 +42 +42 опасность
перегрева
1010.9 1010.1
18 16.04 В 4 10 км 9/3 600 м
[Cu Sc Ac lent Cs]
+27.3 +26.0 93 +41 +41 опасность
перегрева
1010.4 1009.6
21 16.04 В 4 10 км 8/3 600 м
[Cu hum Ac lent Cs]
+26.8 +25.8 94 +40 +40 очень
душно
1009.3 1008.5
00 17.04 штиль 0 10 км 5/3 600 м
[Cu hum Ac lent Cs]
+27.0 +25.4 91 +39 +40 очень
душно
1010.2 1009.4 +25.0
03 17.04 ЮЗ 3 10 км 4/3 600 м
[Cu hum Ac lent Cs]
+31.1 +27.1 79 +49 +57 опасность
перегрева
1011.4 1010.6
06 17.04 ЮЗ 6 10 км 4/3 600 м
[Cu hum Ac lent Cs]
+33.2 +25.9 66 +49 +54 опасность
перегрева
1010.0 1009.2
09 17.04 ЮЗ 5 10 км 4/3 600 м
[Cu hum Ac lent Cs]
+33.9 +24.9 59 +47 +50 опасность
перегрева
1007.6 1006.8
12 17.04 ЮЗ 7 10 км 4/3 600 м
[Cu hum Ac lent Cs]
+31.0 +24.6 69 +44 +44 опасность
перегрева
1007.8 1007.0 +34.1
15 17.04 ЮЗ 5 10 км 4/3 600 м
[Cu hum Ac lent Cs]
+28.4 +24.2 78 +40 +40 очень
душно
1010.1 1009.3
18 17.04 штиль 0 10 км 4/3 600 м
[Cu hum Ac lent Cs]
+26.6 +24.3 87 +37 +37 очень
душно
1009.1 1008.3
21 17.04 штиль 0 10 км 4/3 600 м
[Cu hum Ac lent Cs]
+26.3 +24.4 89 +37 +37 очень
душно
1007.2 1006.4
00 18.04 штиль 0 10 км 3/1 600 м
[Cu hum Ci fib]
+26.5 +24.8 90 +38 +38 очень
душно
1009.6 1008.8 +25.9
03 18.04 З 5 10 км 3/1 600 м
[Cu hum Cs]
+30.9 +26.9 79 +48 +55 опасность
перегрева
1012.5 1011.7
06 18.04 ЮЗ 5 10 км 5/3 600 м
[Cu hum Ac lent Cs]
+33.3 +27.4 71 +52 +59 опасность
перегрева
1009.9 1009.1
09 18.04 ЮЗ 7 10 км 3/1 600 м
[Cu hum Ci fib]
+33.6 +27.9 72 +54 +56 опасность
перегрева
1006.9 1006.1
12 18.04 З 8 10 км 8/3 600 м
[Cu Sc Ac lent Cs]
+31.3 +26.6 76 +48 +48 опасность
перегрева
1007.8 1007.0 +34.0
15 18.04 штиль 0 10 км 8/3 600 м
[Cu Sc Ac lent Cs]
+30.2 +25.7 77 +45 +45 опасность
перегрева
1010.0 1009.2
18 18.04 В 5 10 км 8/3 600 м
[Cu hum Ac lent Cs]
+27.8 +25.4 87 +41 +41 опасность
перегрева
1009.1 1008.3
21 18.04 штиль 0 10 км 5/1 600 м
[Cu hum Ac lent Cs]
+27.1 +25.4 90 +39 +39 очень
душно
1007.9 1007.1
00 19.04 В 3 10 км 3/1 600 м
[Cu hum Cs]
+27.4 +25.7 90 +40 +41 очень
душно
1008.2 1007.4 +25.5
03 19.04 СЗ 9 10 км 6/3 600 м
[Cu Sc Ac lent Cs]
+31.2 +27.8 82 +51 +52 опасность
перегрева
1010.5 1009.7
06 19.04 ЮЗ 6 10 км 4/1 600 м
[Cu hum Ac lent Cs]
+33.6 +28.2 73 +55 +61 опасность
перегрева
1008.7 1007.9
09 19.04 З 9 10 км 4/1 600 м
[Cu hum Ac lent Cs]
+32.9 +26.4 69 +50 +50 опасность
перегрева
1006.0 1005.2
12 19.04 З 12 10 км 5/3 600 м
[Cu hum Ac lent Cs]
+31.1 +26.2 75 +47 +47 опасность
перегрева
1006.4 1005.6 +34.0
15 19.04 З 13 10 км 8/3 600 м
[Cu Sc Ac lent Cs]
+31.0 +26.7 78 +48 +48 опасность
перегрева
1008.8 1008.0
18 19.04 штиль 0 10 км 6/3 600 м
[Cu hum Ac lent Cs]
+26.9 +25.3 91 +39 +39 очень
душно
1007.5 1006.7
21 19.04 З 8 10 км слаб. дождь 10/3 300 м
[Cu Sc Ac As Cs]
+28.2 +25.6 86 +42 +42 опасность
перегрева
1006.6 1005.8 2
00 20.04 В 3 10 км {дождь} 9/3 600 м
[Cu Sc Ac lent Cs]
+27.4 +25.4 89 +40 +40 очень
душно
1007.4 1006.5 +26.6 2
03 20.04 З 6 10 км 8/3 600 м
[Cu Sc Ac lent Cs]
+32.1 +25.8 69 +47 +50 опасность
перегрева
1009.7 1008.9
06 20.04 З 8 10 км 8/3 600 м
[Cu Sc Ac lent Cs]
+32.5 +26.1 69 +48 +50 опасность
перегрева
1007.6 1006.8
09 20.04 З 8 10 км 8/3 600 м
[Cu Sc Ac lent Cs]
+32.8 +26.6 70 +50 +50 опасность
перегрева
1004.8 1004.0
12 20.04 З 12 10 км 6/3 600 м
[Cu hum Ac lent Cs]
+31.3 +26.1 74 +47 +47 опасность
перегрева
1004.9 1004.0 +33.3
15 20.04 З 7 10 км 6/3 600 м
[Cu Sc Ac lent Cs]
+31.0 +25.8 74 +46 +46 опасность
перегрева
1007.5 1006.7
18 20.04 З 7 10 км 6/3 600 м
[Cu Sc Ac lent Cs]
+30.4 +26.9 82 +48 +48 опасность
перегрева
1006.6 1005.8
21 20.04 З 6 10 км 6/3 600 м
[Cu hum Ac lent Cs]
+29.9 +26.4 82 +46 +46 опасность
перегрева
1005.3 1004.5
00 21.04 З 5 10 км 8/3 600 м
[Cu Sc Ac lent Cs]
+29.7 +26.2 82 +45 +45 опасность
перегрева
1006.8 1006.0 +26.0
03 21.04 СЗ 6 10 км 8/3 600 м
[Cu Sc Ac lent Cs]
+30.7 +25.8 75 +46 +48 опасность
перегрева
1007.9 1007.1
06 21.04 З 5 10 км 4/3 600 м
[Cu hum Cs]
+32.8 +26.1 68 +49 +56 опасность
перегрева
1005.6 1004.8
09 21.04 ЮЗ 9 10 км 4/3 600 м
[Cu hum Cs]
+33.3 +26.7 68 +50 +51 опасность
перегрева
1003.7 1002.9
12 21.04 З 13 10 км 8/3 600 м
[Cu Sc Ac lent Cs]
+31.1 +25.3 71 +45 +45 опасность
перегрева
1004.4 1003.5 +33.6
15 21.04 СЗ 4 10 км зарница 9/3 600 м
[Cb cap Ac lent Cs]
+29.6 +24.9 76 +42 +42 опасность
перегрева
1006.4 1005.5
18 21.04 СЗ 5 10 км 6/3 600 м
[Cu hum Ac lent Cs]
+27.9 +24.7 83 +40 +40 очень
душно
1005.7 1004.9
21 21.04 штиль 0 10 км 6/3 600 м
[Cu hum Ac lent Cs]
+27.5 +26.1 92 +41 +41 опасность
перегрева
1005.0 1004.2
00 22.04 СВ 5 10 км 4/3 600 м
[Cu hum Cs]
+28.0 +26.0 89 +42 +42 опасность
перегрева
1006.0 1005.2 +27.0
03 22.04 В 6 10 км 4/3 600 м
[Cu hum Cs]
+32.8 +25.8 67 +48 +52 опасность
перегрева
1007.4 1006.6
06 22.04 СВ 4 10 км 4/3 600 м
[Cu hum Cs]
+36.2 +24.3 51 +49 +58 опасность
перегрева
1006.1 1005.3
09 22.04 Ю 12 10 км 6/3 600 м
[Cu hum Ac lent Cs]
+34.8 +26.0 60 +50 +50 опасность
перегрева
1003.7 1002.9
12 22.04 Ю 7 10 км 6/3 600 м
[Cu hum Ac lent Cs]
+31.0 +24.9 70 +44 +44 опасность
перегрева
1004.7 1003.9 +36.4
15 22.04 В 6 10 км 8/3 600 м
[Cu Sc Ac lent Cs]
+28.9 +23.7 74 +40 +40 очень
душно
1007.3 1006.5
18 22.04 СВ 5 10 км 6/3 600 м
[Cu hum Ac lent Cs]
+27.2 +24.8 87 +39 +39 очень
душно
1006.6 1005.8

 

Местоположение метеостанции Ко Ланта (Таиланд): широта 7.53 долгота 99.05 высота над уровнем моря 3 м.

В архиве по умолчанию представлена погода на Ко Ланта за последнюю неделю. Архивные данные за месяц целиком и за предыдущие месяцы, начиная с января 2011 года, Вы можете получить, выбрав интересующий диапазон дат из раскрывающегося списка и нажав кнопку "Ввод!".


*Определитесь, кто Вы:
робот инопланетянин человек

Внимание! Время в таблицах - всемирное. Для получения местного времени необходимо прибавить поправку, которая равна 7 ч.

Смотрите также архив погоды в соседних городах и на ближайших метеорологических станциях:

Погода в Краби (Таиланд) (62 км)
Погода в Транге (Таиланд) (63 км)
Погода на Пхукете (Таиланд) (82 км)
Погода в Пхукет аэропорту (Таиланд) (105 км)
Погода в Чаванге (Таиланд) (112 км)
Погода в Прасанге (Таиланд) (118 км)
Погода в Накхонситхаммарате (Таиланд) (120 км)
Погода в Пхаттхалунг Агромете (Таиланд) (124 км)
Погода в Накхонситхаммарате 2 (Таиланд) (149 км)
Погода в Сатуне (Таиланд) (150 км)

Пояснения к столбцам:

Ветер - указаны скорость ветра в м/с - средняя за 10 мин, порывы в срок и между сроками (в фигурных скобках) и направление, откуда дует ветер: С - северный, СВ - северо-восточный, В - восточный, ЮВ - юго-восточный, Ю - южный, ЮЗ - юго-западный, З - западный, СЗ - северо-западный.
Видимость - горизонтальная дальность видимости в метрах или километрах. При видимости от 1 до 10 км при отсутствии осадков обычно наблюдается дымка, при ухудшении видимости до 1 км и менее - туман. В сухую погоду видимость может ухудшаться дымом, пылью или мглою.
Явления - указаны атмосферные явления, наблюдавшиеся в срок или в последний час перед сроком; фигурными скобками обозначены явления, наблюдавшиеся между сроками (за 1-3 часа до срока); квадратными скобками обозначены град или гололедные отложения с указанием их диаметра в мм.
Облачность - указаны через наклонную черту общая и нижняя облачность в баллах и высота нижней границы облаков в метрах; квадратными скобками обозначены формы облаков: Ci - перистые, Cs - перисто-слоистые, Cc - перисто-кучевые, Ac - высококучевые, As - высокослоистые, Sc - слоисто-кучевые, Ns - слоисто-дождевые, Cu - кучевые, Cb - кучево-дождевые. Подробнее классификацию облаков см. в Атласе облаков (PDF).
T - Температура воздуха - температура, измеренная на высоте 2 м над землей.
Td - Температура точки росы - температура, при понижении до которой содержащийся в воздухе водяной пар достигнет насыщения.
f - Относительная влажность воздуха - влажноcть воздуха, измеренная на высоте 2 м над землей.
Te - Эффективная температура - температура, которую ощущает одетый по сезону человек в тени. Характеристика душности погоды. При расчете учитывается влияние влажности воздуха и скорости ветра на теплоощущения человека.
Tes - Эффективная температура на солнце - температура, которую ощущает человек, с поправкой на солнечный нагрев. Характеристика знойности погоды. Зависит от высоты солнца над горизонтом, облачности и скорости ветра. Ночью, в пасмурную погоду, а также при ветре 12 м/с и более поправка равна нулю.
P - Атмосферное давление - приведенное к уровню моря атмосферное давление.
Po - Атмосферное давление - измеренное на уровне метеостанции атмосферное давление.
Tmin - Минимальная температура - минимум температуры воздуха на высоте 2 м над землей.
Tmax - Максимальная температура - максимум температуры воздуха на высоте 2 м над землей.
R - Количество осадков - Количество выпавших осадков за период времени, мм. При наведении курсора мыши на число - период времени, за который выпало указанное количество осадков.
R24 - Количество осадков - Количество выпавших осадков за 24 часа, мм.
S - Снежный покров - Высота снежного покрова, см. При наведении курсора мыши на число - состояние снежного покрова и степень покрытия местности в баллах.